Weather Service Report


114 
ASUS43 KIND 251959
RWRIN 

WEATHER ROUNDUP FOR INDIANA
NATIONAL WEATHER SERVICE INDIANAPOLIS IN
400 PM EDT MON JUL 25 2016

NOTE: "FAIR" INDICATES FEW OR NO CLOUDS BELOW 12,000 FEET WITH NO
SIGNIFICANT WEATHER AND/OR OBSTRUCTIONS TO VISIBILITY.

* - STATION DOES NOT REPORT WEATHER SUCH AS PRECIPITATION OR FOG.

+ - STATION NOT QUALITY CONTROLLED BY THE NATIONAL WEATHER SERVICE.
    USE DATA WITH CAUTION...ESPECIALLY DEWPOINT AND RELATIVE
    HUMIDITY OBSERVATIONS.

INZ001>003-010>013-019-020-252100-
NORTHWEST INDIANA
  
CITY           SKY/WX    TMP DP  RH WIND       PRES   REMARKS

$$

LMZ046-743>745-252100-
SOUTHERN LAKE MICHIGAN
  
STATION/POSITION TIME  TEMP    WIND        PRES    WAVE
                       AIR SEA DIR/SP/G            HT
                 (UTC) (F)     (DEG/KT/KT) (MB)    (FT)
BURNS HARBOR     1900   78      40/  4/  4 1016.9F
MICHIGAN CITY    1900   77     270/  4/  5   N/A
5NW MICH CITY    1900   75 76  320/  4/  6   N/A     1

$$

INZ004-005-014>016-021>024-252100-
NORTH CENTRAL INDIANA
  
CITY           SKY/WX    TMP DP  RH WIND       PRES   REMARKS
ELKHART        SUNNY     84  70  61 NW9       30.00F                  
GOSHEN         SUNNY     87  58  37 NW13      29.98F                  
SOUTH BEND     SUNNY     83  65  54 NW10G16   30.00F                  

$$

INZ006>009-017-018-025>027-252100-
NORTHEAST INDIANA
  
CITY           SKY/WX    TMP DP  RH WIND       PRES   REMARKS
ANGOLA *+        N/A     86  82  89 W10       29.98F HX 105           
FORT WAYNE     PTSUNNY   87  69  54 NW8       29.98F                  

$$

INZ028-029-035-036-043>045-051>053-252100-
WEST CENTRAL INDIANA
  
CITY           SKY/WX    TMP DP  RH WIND       PRES   REMARKS
CRAWFORDSVL +  PTSUNNY   83  75  74 NW6       30.00F                  
LAFAYETTE      PTSUNNY   84  73  69 VRB5      29.99F                  
TERRE HAUTE    MOSUNNY   88  73  61 N7        29.99F HX  95           

$$

INZ030>032-037>040-046>048-054>057-064-065-252100-
CENTRAL INDIANA
  
CITY           SKY/WX    TMP DP  RH WIND       PRES   REMARKS
INDIANAPOLIS   PTSUNNY   88  72  58 W8G17     30.00F                  
-EAGLE CREEK   MOSUNNY   88  72  58 W10       29.99F                  
KOKOMO *+      MOSUNNY   84  70  61 NW12      29.99F                  
SHELBYVILLE    MOSUNNY   90  70  51 N7        29.99F HX  95           

$$

INZ033-034-041-042-049-050-058-059-252100-
EAST CENTRAL INDIANA
  
CITY           SKY/WX    TMP DP  RH WIND       PRES   REMARKS
MUNCIE         MOSUNNY   88  73  61 W9        29.99F HX  95           

$$

INZ060-061-067>069-081>083-085>088-252100-
SOUTHWEST INDIANA
  
CITY           SKY/WX    TMP DP  RH WIND       PRES   REMARKS
EVANSVILLE     TSTM      77  74  90 E5        29.99R FOG              
HUNTINGBURG *+ CLOUDY    75  72  88 N5        30.02R                  

$$

INZ062-063-066-070>080-084-089>092-252100-
SOUTH CENTRAL AND SOUTHEAST INDIANA
  
CITY           SKY/WX    TMP DP  RH WIND       PRES   REMARKS
BLOOMINGTON    CLOUDY    87  72  60 W6        30.01S                  
MADISON *+     PTSUNNY   79  70  73 S7        30.02F                  

$$

  

Return to Home page


Western Regional Climate Center, wrcc@dri.edu